sat.trackr.live / text

‹ back to catalog

ONEWEB-0298

NORAD 49087 · 2021-075N

PAYLOAD ACTIVE UNKNOWN

§ Identity

Operator
Country
UK
Launch date
2021-08-21
Launch site
TYMSC
Launch vehicle
Mass (kg)
RCS (m²)

Purposes: comms

External: N2YO · Heavens-Above · Gunter

§ Orbital elements

Epoch: 2026-09-20T04:31:06.049344Z

Period
109.29 min
Inclination
87.9205°
Eccentricity
0.0001955
Mean motion
13.17649481 rev/d
Perigee alt
1,192.2 km
Apogee alt
1,195.2 km
Semi-major
7,571.8 km
B*
-1.9548e-5
RAAN
347.0020°
Arg perigee
103.4357°
Mean anomaly
256.6992°
Rev number
24,613

§ Raw data

ONEWEB-02981 49087U 21075N   26263.18826446  .00000005  00000+0 -19548-4 0  99972 49087  87.9205 347.0020 0001955 103.4357 256.6992 13.17649481246139

JSON: /api/v1/satellites/49087 · /tle

For live sub-satellite position, see the globe view (requires WebGL).

§ Visibility from observer

Set your observer location to see the next 7 days of passes ≥ 10°. The values pass through the URL so the page stays shareable.

No JS? Fill the form by hand. The geolocation button needs JavaScript.